Tracking 19242 objects as of 20-Sep-2018
HD Live streaming from Space Station
objects crossing your sky now

NUDT-PHONESAT

Track NUDT-PHONESAT now!
10-day predictions
NUDT-PHONESAT is classified as:


NORAD ID: 40900
Int'l Code: 2015-049B
Perigee: 497.7 km
Apogee: 518.1 km
Inclination: 97.4 °
Period: 94.6 minutes
Semi major axis: 6878 km
RCS: Unknown
Launch date: September 19, 2015
Source: People's Republic of China (PRC)
Launch site: Taiyaun Space Center, China (TSC)
Uplink (MHz):
Downlink (MHz): 437.300
Beacon (MHz):
Mode: 9k6 GFSK
Call sign: BJ1SJ
Status: Inactive

aabbcc
Your satellite tracking list
Your tracking list is empty




NASA's NSSDC Master Catalog

Two Line Element Set (TLE):
1 40900U 15049B   18263.40342688  .00001744  00000-0  80022-4 0  9999
2 40900  97.4423 270.5815 0014888  59.9979 300.2732 15.21684119166399
Source of the keplerian elements: Caltech